timestamp,surface_pressure_avg,surface_temp_avg,battery_voltage,lat,long
2020-06-25 00:09:01+00:00,303.0046,12.8,12.97,47.84626,-54.09684
2020-06-25 00:19:01+00:00,313.5114,12.8,12.73,47.84626,-54.09684
2020-06-25 00:29:01+00:00,323.3697,12.8,12.73,47.84626,-54.09684
2020-06-25 00:39:01+00:00,329.5163,12.8,12.73,47.84626,-54.09684
2020-06-25 00:49:01+00:00,334.5680000000001,12.8,12.73,47.84626,-54.09684
2020-06-25 00:59:01+00:00,341.4297,12.8,12.73,47.84626,-54.09684
2020-06-25 01:09:01+00:00,345.7363,12.57,12.73,47.84626,-54.09684
2020-06-25 01:19:01+00:00,349.0863,11.6,12.73,47.84626,-54.09684
2020-06-25 01:29:01+00:00,354.0162,11.6,12.73,47.84626,-54.09684
2020-06-25 01:39:01+00:00,358.8113,11.6,12.73,47.84626,-54.09684
2020-06-25 01:49:01+00:00,360.7664,11.5,12.73,47.84626,-54.09684
2020-06-25 01:59:01+00:00,361.8629,11.49,12.73,47.84626,-54.09684
2020-06-25 02:09:01+00:00,363.4797,11.5,12.73,47.84626,-54.09684
2020-06-25 02:19:01+00:00,365.548,11.3,12.73,47.84626,-54.09684
2020-06-25 02:29:01+00:00,367.5262,11.37,12.73,47.84626,-54.09684
2020-06-25 02:39:01+00:00,367.48800000000006,11.61,12.73,47.84626,-54.09684
2020-06-25 02:49:01+00:00,365.9196,11.75,12.73,47.84626,-54.09684
2020-06-25 02:59:01+00:00,363.8314,11.91,12.73,47.84626,-54.09684
2020-06-25 03:09:01+00:00,361.8146,12.17,12.73,47.84626,-54.09684
2020-06-25 03:19:01+00:00,357.8063,12.22,12.73,47.84626,-54.09684
2020-06-25 03:29:01+00:00,354.5146,12.35,12.73,47.84626,-54.09684
2020-06-25 03:39:01+00:00,350.023,12.45,12.73,47.84626,-54.09684
2020-06-25 03:49:01+00:00,348.7829,12.51,12.73,47.84626,-54.09684
2020-06-25 03:59:01+00:00,344.2513,12.6,12.73,47.84626,-54.09684
2020-06-25 04:09:01+00:00,336.68300000000005,12.62,12.73,47.84626,-54.09684
2020-06-25 04:19:01+00:00,332.7647,12.6,12.73,47.84626,-54.09684
2020-06-25 04:29:01+00:00,327.8163,12.6,12.73,47.84626,-54.09684
2020-06-25 04:39:01+00:00,318.71299999999997,12.61,12.73,47.84626,-54.09684
2020-06-25 04:49:01+00:00,310.58799999999997,12.68,12.73,47.84626,-54.09684
2020-06-25 04:59:01+00:00,304.2897,12.68,12.73,47.84626,-54.09684
2020-06-25 05:09:01+00:00,296.7797,12.7,12.73,47.84626,-54.09684
2020-06-25 05:19:01+00:00,284.278,12.7,12.65,47.84626,-54.09684
2020-06-25 05:29:01+00:00,274.6314,12.95,12.65,47.84626,-54.09684
2020-06-25 05:39:01+00:00,267.6097,13.21,12.65,47.84626,-54.09684
2020-06-25 05:49:01+00:00,260.6964,13.36,12.65,47.84626,-54.09684
2020-06-25 05:59:01+00:00,250.8781,13.41,12.65,47.84626,-54.09684
2020-06-25 06:09:01+00:00,243.8731,13.5,12.65,47.84626,-54.09684
2020-06-25 06:19:01+00:00,238.0414,13.46,12.65,47.84626,-54.09684
2020-06-25 06:29:01+00:00,229.2764,13.4,12.65,47.84626,-54.09684
2020-06-25 06:39:01+00:00,220.5215,13.4,12.65,47.84626,-54.09684
2020-06-25 06:49:01+00:00,216.7181,13.4,12.65,47.84626,-54.09684
2020-06-25 06:59:01+00:00,211.2431,13.4,12.65,47.84626,-54.09684
2020-06-25 07:09:01+00:00,202.5148,13.39,12.65,47.84626,-54.09684
2020-06-25 07:19:01+00:00,196.7248,13.4,12.65,47.84626,-54.09684
2020-06-25 07:29:01+00:00,196.5148,13.4,12.65,47.84626,-54.09684
2020-06-25 07:39:01+00:00,192.4081,13.38,12.65,47.84626,-54.09684
2020-06-25 07:49:01+00:00,187.6165,13.37,12.65,47.84626,-54.09684
2020-06-25 07:59:01+00:00,188.5548,13.34,12.65,47.84626,-54.09684
2020-06-25 08:09:01+00:00,188.4648,13.3,12.65,47.84626,-54.09684
2020-06-25 08:19:01+00:00,187.5731,13.3,12.65,47.84626,-54.09684
2020-06-25 08:29:01+00:00,188.5231,13.3,12.65,47.84626,-54.09684
2020-06-25 08:39:01+00:00,190.0348,13.29,12.65,47.84626,-54.09684
2020-06-25 08:49:01+00:00,192.0198,13.25,12.65,47.84626,-54.09684
2020-06-25 08:59:01+00:00,195.1415,13.2,12.65,47.84626,-54.09684
2020-06-25 09:09:01+00:00,197.7481,13.2,12.65,47.84626,-54.09684
2020-06-25 09:19:01+00:00,199.2315,13.2,12.65,47.84626,-54.09684
2020-06-25 09:29:01+00:00,201.4882,13.19,12.65,47.84626,-54.09684
2020-06-25 09:39:01+00:00,204.8581,13.19,12.65,47.84626,-54.09684
2020-06-25 09:49:01+00:00,208.1931,13.19,12.65,47.84626,-54.09684
2020-06-25 09:59:01+00:00,211.0398,13.19,12.65,47.84626,-54.09684
2020-06-25 10:09:01+00:00,214.6481,13.19,12.65,47.84626,-54.09684
2020-06-25 10:19:01+00:00,219.2314,13.18,12.65,47.84626,-54.09684
2020-06-25 10:29:01+00:00,223.3098,13.14,12.65,47.84626,-54.09684
2020-06-25 10:39:01+00:00,227.3831,13.13,12.65,47.84626,-54.09684
2020-06-25 10:49:01+00:00,231.0614,13.19,12.65,47.84626,-54.09684
2020-06-25 10:59:01+00:00,233.5114,13.2,12.65,47.84626,-54.09684
2020-06-25 11:09:01+00:00,235.7381,13.29,12.65,47.84626,-54.09684
2020-06-25 11:19:01+00:00,241.3465,13.2,12.73,47.84626,-54.09684
2020-06-25 11:29:01+00:00,246.6964,13.2,12.73,47.84626,-54.09684
2020-06-25 11:39:01+00:00,250.7414,13.1,12.73,47.84626,-54.09684
2020-06-25 11:49:01+00:00,255.0414,13.05,12.73,47.84626,-54.09684
2020-06-25 11:59:01+00:00,262.323,13.0,12.73,47.84626,-54.09684
2020-06-25 12:09:01+00:00,267.4764,12.73,12.73,47.84626,-54.09684
2020-06-25 12:19:01+00:00,272.2765,12.7,13.05,47.84626,-54.09684
2020-06-25 12:29:01+00:00,279.638,12.39,13.05,47.84626,-54.09684
2020-06-25 12:39:01+00:00,288.258,11.38,13.05,47.84626,-54.09684
2020-06-25 12:49:01+00:00,293.5214,11.0,13.05,47.84626,-54.09684
2020-06-25 12:59:01+00:00,301.4747,11.3,13.05,47.84626,-54.09684
2020-06-25 13:09:01+00:00,312.7113,11.0,13.05,47.84626,-54.09684
2020-06-25 13:19:01+00:00,319.0264,10.9,13.37,47.84626,-54.09684
2020-06-25 13:29:01+00:00,320.588,10.9,13.37,47.84626,-54.09684
2020-06-25 13:39:01+00:00,322.9497,10.99,13.37,47.84626,-54.09684
2020-06-25 13:49:01+00:00,326.8214,10.9,13.37,47.84626,-54.09684
2020-06-25 13:59:01+00:00,327.7114,10.92,13.37,47.84626,-54.09684
2020-06-25 14:09:01+00:00,328.0797,11.06,13.37,47.84626,-54.09684
2020-06-25 14:19:01+00:00,330.9196,10.88,13.84,47.84626,-54.09684
2020-06-25 14:29:01+00:00,333.048,10.52,13.84,47.84626,-54.09684
2020-06-25 14:39:01+00:00,332.1931,11.1,13.84,47.84626,-54.09684
2020-06-25 14:49:01+00:00,332.8712,11.1,13.84,47.84626,-54.09684
2020-06-25 14:59:01+00:00,334.1364,10.41,13.84,47.84626,-54.09684
2020-06-25 15:09:01+00:00,330.8947,11.05,13.84,47.84626,-54.09684
2020-06-25 15:19:01+00:00,327.1613,11.3,14.4,47.84626,-54.09684
2020-06-25 15:29:01+00:00,324.1096,11.1,14.4,47.84626,-54.09684
2020-06-25 15:39:01+00:00,321.0812,10.86,14.4,47.84626,-54.09684
2020-06-25 15:49:01+00:00,315.778,11.37,14.4,47.84626,-54.09684
2020-06-25 15:59:01+00:00,314.0313,11.3,14.4,47.84626,-54.09684
2020-06-25 16:09:01+00:00,314.0213,11.0,14.4,47.84626,-54.09684
2020-06-25 16:19:01+00:00,311.1281,11.16,14.32,47.84626,-54.09684
2020-06-25 16:29:01+00:00,306.7113,11.3,14.32,47.84626,-54.09684
2020-06-25 16:39:01+00:00,303.9647,11.2,14.32,47.84626,-54.09684
2020-06-25 16:49:01+00:00,301.4497,11.14,14.32,47.84626,-54.09684
2020-06-25 16:59:01+00:00,295.9381,11.42,14.32,47.84626,-54.09684
2020-06-25 17:09:01+00:00,288.593,11.4,14.32,47.84626,-54.09684
2020-06-25 17:19:01+00:00,281.1431,11.1,14.16,47.84626,-54.09684
2020-06-25 17:29:01+00:00,274.9547,11.1,14.16,47.84626,-54.09684
2020-06-25 17:39:01+00:00,266.4064,11.92,14.16,47.84626,-54.09684
2020-06-25 17:49:01+00:00,257.3364,12.25,14.16,47.84626,-54.09684
2020-06-25 17:59:01+00:00,248.7864,12.2,14.16,47.84626,-54.09684
2020-06-25 18:09:01+00:00,243.7931,12.32,14.16,47.84626,-54.09684
2020-06-25 18:19:01+00:00,236.6698,12.8,14.0,47.84626,-54.09684
2020-06-25 18:29:01+00:00,229.1131,12.5,14.0,47.84626,-54.09684
2020-06-25 18:39:01+00:00,222.2714,12.3,14.0,47.84626,-54.09684
2020-06-25 18:49:01+00:00,215.4665,12.2,14.0,47.84626,-54.09684
2020-06-25 18:59:01+00:00,209.1581,12.03,14.0,47.84626,-54.09684
2020-06-25 19:09:01+00:00,202.7048,12.09,14.0,47.84626,-54.09684
2020-06-25 19:19:01+00:00,196.5165,12.15,13.92,47.84626,-54.09684
2020-06-25 19:29:01+00:00,194.3131,12.21,13.92,47.84626,-54.09684
2020-06-25 19:39:01+00:00,193.2715,12.2,13.92,47.84626,-54.09684
2020-06-25 19:49:01+00:00,189.9831,12.26,13.92,47.84626,-54.09684
2020-06-25 19:59:01+00:00,186.5782,12.58,13.92,47.84626,-54.09684
2020-06-25 20:09:01+00:00,188.0481,12.6,13.92,47.84626,-54.09684
2020-06-25 20:19:01+00:00,190.2898,12.24,13.84,47.84626,-54.09684
2020-06-25 20:29:01+00:00,188.4714,12.0,13.84,47.84626,-54.09684
2020-06-25 20:39:01+00:00,189.1831,11.89,13.84,47.84626,-54.09684
2020-06-25 20:49:01+00:00,193.9315,11.95,13.84,47.84626,-54.09684
2020-06-25 20:59:01+00:00,195.2631,12.0,13.84,47.84626,-54.09684
2020-06-25 21:09:01+00:00,195.0215,12.04,13.84,47.84626,-54.09684
2020-06-25 21:19:01+00:00,199.5998,11.9,13.68,47.84626,-54.09684
2020-06-25 21:29:01+00:00,205.1648,11.7,13.68,47.84626,-54.09684
2020-06-25 21:39:01+00:00,207.5714,11.7,13.68,47.84626,-54.09684
2020-06-25 21:49:01+00:00,210.0714,11.7,13.68,47.84626,-54.09684
2020-06-25 21:59:01+00:00,215.0131,11.78,13.68,47.84626,-54.09684
2020-06-25 22:09:01+00:00,217.9365,12.25,13.68,47.84626,-54.09684
2020-06-25 22:19:01+00:00,219.2248,12.1,13.6,47.84626,-54.09684
2020-06-25 22:29:01+00:00,221.0547,11.85,13.6,47.84626,-54.09684
2020-06-25 22:39:01+00:00,225.1848,12.45,13.6,47.84626,-54.09684
2020-06-25 22:49:01+00:00,226.9481,12.54,13.6,47.84626,-54.09684
2020-06-25 22:59:01+00:00,227.8165,12.7,13.6,47.84626,-54.09684
2020-06-25 23:09:01+00:00,230.7131,12.7,13.6,47.84626,-54.09684
2020-06-25 23:19:01+00:00,239.9581,12.82,13.21,47.84626,-54.09684
2020-06-25 23:29:01+00:00,249.3564,12.96,13.21,47.84626,-54.09684
2020-06-25 23:39:01+00:00,255.0714,13.1,13.21,47.84626,-54.09684
2020-06-25 23:49:01+00:00,258.8781,13.2,13.21,47.84626,-54.09684
2020-06-25 23:59:01+00:00,265.5531,13.3,13.21,47.84626,-54.09684
